Location: Cuiabá
(15.6014°S, 56.0979°W)
Time: 19:39:51
(UTC-04:00)

Envisat - Visible Passes

Search period start: 26 November 2022 00:00
Search period end: 06 December 2022 00:00
Orbit: 763 x 765 km, 98.2° (Epoch: 26 November)

Date Brightness Start Highest point End Pass type
(mag) Time Alt. Az. Time Alt. Az. Time Alt. Az.
26 Nov 3.0 03:21:01 10° NNE 03:26:05 81° ESE 03:31:12 10° S visible
27 Nov 4.8 02:44:56 10° NE 02:49:16 29° ESE 02:53:37 10° SSE visible
27 Nov 4.3 04:24:41 10° NW 04:28:05 18° W 04:31:31 10° SW visible
28 Nov 6.0 02:11:49 10° E 02:12:35 10° ESE 02:13:21 10° ESE visible
28 Nov 3.1 03:46:20 11° N 03:51:05 50° W 03:56:02 10° SSW visible
29 Nov 3.5 03:09:13 10° NNE 03:14:11 58° ESE 03:19:12 10° S visible
30 Nov 5.3 02:33:37 10° ENE 02:37:23 21° ESE 02:41:12 10° SSE visible
30 Nov 4.0 04:12:01 10° NNW 04:16:07 25° W 04:20:15 10° SW visible
01 Dec 2.9 03:34:31 12° N 03:39:09 70° WNW 03:44:15 10° SSW visible
02 Dec 4.1 02:57:31 10° NE 03:02:17 42° ESE 03:07:04 10° S visible
02 Dec 4.7 04:39:17 10° WNW 04:41:12 12° W 04:43:09 10° WSW visible
03 Dec 5.7 02:22:35 10° ENE 02:25:33 16° ESE 02:28:30 10° SE visible
03 Dec 3.6 04:00:01 12° NNW 04:04:10 34° W 04:08:46 10° SW visible
04 Dec 3.0 03:22:41 13° NNE 03:27:13 85° ESE 03:32:21 10° S visible
05 Dec 4.7 02:45:59 10° NE 02:50:23 31° ESE 02:54:50 10° SSE visible
05 Dec 4.4 04:25:59 10° NW 04:29:13 17° W 04:32:30 10° WSW visible
